Ely, NV

7:55 AM PST on December 13, 2017 (GMT -0800)
Ely

Weather History for KELY - June, 2013

Change the Weather History Date:

Wednesday, June 12, 2013

  Actual Average Record
Temperature  
Mean Temperature 64 °F 59 °F  
Max Temperature 85 °F 78 °F 93 °F (1974)
Min Temperature 42 °F 40 °F 27 °F (2008)
Degree Days  
Heating Degree Days 1 7  
Month to date heating degree days 20 102  
Since 1 June heating degree days 20 102  
Since 1 July heating degree days 7093 7449  
Cooling Degree Days 0 0  
Month to date cooling degree days 14 0  
Year to date cooling degree days 14 1  
Since 1 June cooling degree days 14 0  
Growing Degree Days 13 (Base 50)    
Moisture  
Dew Point 26 °F    
Average Humidity 39    
Maximum Humidity 67    
Minimum Humidity 10    
Precipitation  
Precipitation T in 0.03 in 0.89 in (1967)
Month to date precipitation T 0.37  
Year to date precipitation 3.11 4.80  
Snow  
Snow 0.00 in 0.00 in 0.00 in (1893)
Month to date snowfall 0.0 0.1  
Since 1 June snowfall 0.0 0.1  
Since 1 July snowfall 65.0 50.8  
Snow Depth 0.00 in    
Sea Level Pressure  
Sea Level Pressure 29.79 in    
Wind  
Wind Speed 18 mph (South)    
Max Wind Speed 40 mph    
Max Gust Speed 55 mph    
Visibility 10 miles    
Events      
T = Trace of Precipitation, MM = Missing Value Source: NWS Daily Summary

Daily Weather History Graph

Daily Weather History Graph

Search for Another Location

Airport or City:

Trip Planner

Search our weather history database for the weather conditions in past years. The results will help you decide how hot, cold, wet, or windy it might be!

Date:

Astronomy

Jun. 12, 2013 Rise Set
Actual Time 5:12 AM PDT 8:06 PM PDT
Civil Twilight 4:39 AM PDT 8:38 PM PDT
Nautical Twilight 3:59 AM PDT 9:19 PM PDT
Astronomical Twilight 3:12 AM PDT 10:06 PM PDT
Moon 8:54 AM PDT (6/12) 10:45 PM PDT (6/12)
Length of Visible Light 15h 58m
Length of Day
14h 54m
Waxing Crescent, 15% of the Moon is Illuminated
Jun 12
Waxing Crescent
Jun 16
First Quarter
Jun 23
Full
Jun 29
Last Quarter
Jul 8
New

Hourly Weather History & Observations

Time (PDT) Temp. Windchill Dew Point Humidity Pressure Visibility Wind Dir Wind Speed Gust Speed Precip Events Conditions
12:53 AM 50.0 °F - 34.0 °F 54% 29.88 in 10.0 mi SSE 12.7 mph - N/A   Clear
1:53 AM 52.0 °F - 35.1 °F 53% 29.85 in 10.0 mi South 12.7 mph - N/A   Scattered Clouds
2:53 AM 50.0 °F - 34.0 °F 54% 29.86 in 10.0 mi South 5.8 mph - N/A   Partly Cloudy
3:53 AM 46.9 °F - 33.1 °F 59% 29.86 in 10.0 mi South 11.5 mph - N/A   Clear
4:53 AM 43.0 °F 38.2 °F 32.0 °F 65% 29.88 in 10.0 mi South 8.1 mph - N/A   Clear
5:53 AM 48.9 °F - 33.1 °F 54% 29.87 in 10.0 mi South 11.5 mph - N/A   Clear
6:53 AM 59.0 °F - 35.1 °F 41% 29.86 in 10.0 mi South 5.8 mph - N/A   Clear
7:53 AM 68.0 °F - 30.0 °F 24% 29.82 in 10.0 mi SW 11.5 mph 16.1 mph N/A   Clear
8:53 AM 73.9 °F - 23.0 °F 15% 29.81 in 10.0 mi SSE 20.7 mph 25.3 mph N/A   Clear
9:53 AM 75.9 °F - 23.0 °F 14% 29.84 in 10.0 mi SSW 17.3 mph 27.6 mph N/A   Clear
10:53 AM 75.9 °F - 19.9 °F 12% 29.84 in 10.0 mi South 18.4 mph 29.9 mph N/A   Clear
11:53 AM 77.0 °F - 21.0 °F 12% 29.85 in 10.0 mi South 24.2 mph 32.2 mph N/A   Clear
12:53 PM 82.0 °F - 19.0 °F 10% 29.83 in 10.0 mi SSW 15.0 mph 31.1 mph N/A   Clear
1:53 PM 82.9 °F - 21.0 °F 10% 29.79 in 10.0 mi SW 21.9 mph 34.5 mph N/A   Clear
2:53 PM 81.0 °F - 23.0 °F 12% 29.80 in 10.0 mi South 23.0 mph 33.4 mph N/A   Partly Cloudy
3:53 PM 82.9 °F - 25.0 °F 12% 29.78 in 10.0 mi South 27.6 mph 41.4 mph N/A   Clear
4:53 PM 80.1 °F - 24.1 °F 13% 29.78 in 10.0 mi South 20.7 mph 26.5 mph N/A   Clear
5:53 PM 84.0 °F - 24.1 °F 11% 29.71 in 10.0 mi South 21.9 mph 33.4 mph N/A   Clear
6:53 PM 80.1 °F - 24.1 °F 13% 29.68 in 10.0 mi South 25.3 mph 34.5 mph 0.00 in   Partly Cloudy
7:53 PM 78.1 °F - 21.0 °F 12% 29.67 in 10.0 mi South 29.9 mph 39.1 mph N/A   Clear
8:53 PM 77.0 °F - 21.9 °F 13% 29.66 in 10.0 mi South 24.2 mph 36.8 mph N/A   Clear
9:53 PM 75.0 °F - 23.0 °F 14% 29.68 in 10.0 mi South 24.2 mph 39.1 mph N/A   Clear
10:53 PM 73.0 °F - 24.1 °F 16% 29.68 in 10.0 mi South 27.6 mph 36.8 mph N/A   Clear
11:53 PM 71.1 °F - 24.1 °F 17% 29.70 in 10.0 mi SSW 17.3 mph 25.3 mph N/A   Clear